LUCH 5A

Last updated on Tue Oct 14 2025 00:02:34 GMT+0000 (Coordinated Universal Time)

1 37951U 11074B 25286.63864034 -.00000059 00000+0 00000+0 0 9998 2 37951 8.1238 77.4713 0005252 142.5403 199.2450 1.00269912 50578
UTC large
Height (km)
Speed (km/s)
/
Latitude / Longitude
Inclination (degrees)
Orbital Period (minutes)
Azimuth
Elevation
Range (km)
Doppler Factor

Next 0 passes for location: London (51.5072 / 0.1276)

Sorry there are no passes over London.